TimeCDT,TemperatureF,Dew PointF,Humidity,Sea Level PressureIn,VisibilityMPH,Wind Direction,Wind SpeedMPH,Gust SpeedMPH,PrecipitationIn,Events,Conditions,WindDirDegrees,DateUTC
12:15 AM,71.8,68.4,89,29.99,10.0,Calm,Calm,-,N/A,,Clear,0,2013-08-30 05:15:00
12:35 AM,69.8,67.6,93,29.98,7.0,Calm,Calm,-,N/A,,Clear,0,2013-08-30 05:35:00
12:55 AM,70.0,68.0,93,29.98,7.0,SE,3.5,-,N/A,,Clear,130,2013-08-30 05:55:00
1:15 AM,70.2,68.0,93,29.98,10.0,Calm,Calm,-,N/A,,Clear,0,2013-08-30 06:15:00
1:35 AM,70.3,68.2,93,29.97,7.0,Calm,Calm,-,N/A,,Clear,0,2013-08-30 06:35:00
2:15 AM,68.4,66.9,95,29.97,7.0,Calm,Calm,-,N/A,,Clear,0,2013-08-30 07:15:00
2:35 AM,69.1,67.5,95,29.97,7.0,SE,3.5,-,N/A,,Clear,140,2013-08-30 07:35:00
2:55 AM,68.2,66.7,95,29.97,7.0,Calm,Calm,-,N/A,,Clear,0,2013-08-30 07:55:00
3:15 AM,69.4,67.5,93,29.96,7.0,Calm,Calm,-,N/A,,Clear,0,2013-08-30 08:15:00
3:35 AM,69.1,67.3,94,29.96,7.0,SE,3.5,-,N/A,,Clear,140,2013-08-30 08:35:00
3:55 AM,69.4,67.5,93,29.96,7.0,SE,3.5,-,N/A,,Clear,140,2013-08-30 08:55:00
4:15 AM,70.0,67.6,92,29.95,10.0,SE,3.5,-,N/A,,Clear,130,2013-08-30 09:15:00
4:35 AM,69.8,67.6,93,29.95,10.0,SE,4.6,-,N/A,,Clear,140,2013-08-30 09:35:00
4:55 AM,70.7,68.0,91,29.95,10.0,SE,4.6,-,N/A,,Clear,140,2013-08-30 09:55:00
5:15 AM,70.0,67.6,92,29.95,10.0,SE,3.5,-,N/A,,Clear,140,2013-08-30 10:15:00
5:35 AM,68.9,67.1,94,29.95,7.0,SSE,3.5,-,N/A,,Clear,160,2013-08-30 10:35:00
5:55 AM,69.4,67.5,93,29.95,7.0,Calm,Calm,-,N/A,,Clear,0,2013-08-30 10:55:00
6:15 AM,70.0,67.6,92,29.94,7.0,SSE,4.6,-,N/A,,Clear,150,2013-08-30 11:15:00
6:55 AM,70.2,68.0,93,29.93,5.0,Calm,Calm,-,N/A,,Clear,0,2013-08-30 11:55:00
7:15 AM,71.6,68.7,91,29.93,5.0,South,3.5,-,N/A,,Clear,170,2013-08-30 12:15:00
7:35 AM,73.2,69.6,88,29.93,7.0,South,4.6,-,N/A,,Clear,170,2013-08-30 12:35:00
7:55 AM,74.5,70.3,87,29.93,7.0,South,4.6,-,N/A,,Clear,180,2013-08-30 12:55:00
8:55 AM,79.5,72.9,80,29.92,7.0,SSW,9.2,-,N/A,,Clear,210,2013-08-30 13:55:00
9:15 AM,81.0,73.4,78,29.92,7.0,SSW,10.4,-,N/A,,Clear,200,2013-08-30 14:15:00
9:35 AM,81.7,73.6,76,29.91,7.0,SW,9.2,-,N/A,,Clear,220,2013-08-30 14:35:00
9:55 AM,83.1,73.8,73,29.91,7.0,SSW,6.9,-,N/A,,Clear,210,2013-08-30 14:55:00
10:15 AM,83.8,73.9,72,29.91,10.0,SSW,6.9,-,N/A,,Clear,210,2013-08-30 15:15:00
10:35 AM,85.3,74.5,70,29.90,7.0,SSW,6.9,-,N/A,,Clear,210,2013-08-30 15:35:00
10:55 AM,86.2,74.5,68,29.90,10.0,SW,4.6,-,N/A,,Scattered Clouds,220,2013-08-30 15:55:00
11:35 AM,90.3,74.5,59,29.89,10.0,WSW,4.6,-,N/A,,Clear,240,2013-08-30 16:35:00
11:55 AM,90.0,74.7,61,29.89,10.0,WSW,5.8,-,N/A,,Clear,250,2013-08-30 16:55:00
12:15 PM,91.0,74.5,58,29.88,10.0,WSW,6.9,-,N/A,,Clear,250,2013-08-30 17:15:00
12:35 PM,91.8,74.7,57,29.87,10.0,West,4.6,-,N/A,,Clear,280,2013-08-30 17:35:00
12:55 PM,91.9,74.5,57,29.87,10.0,SW,6.9,-,N/A,,Clear,230,2013-08-30 17:55:00
1:15 PM,93.9,74.5,53,29.87,10.0,West,5.8,-,N/A,,Clear,260,2013-08-30 18:15:00
1:35 PM,94.8,73.2,49,29.86,10.0,West,6.9,-,N/A,,Clear,280,2013-08-30 18:35:00
1:55 PM,94.1,71.6,48,29.86,10.0,WSW,6.9,-,N/A,,Clear,240,2013-08-30 18:55:00
2:15 PM,94.8,71.6,47,29.85,10.0,WSW,8.1,-,N/A,,Clear,250,2013-08-30 19:15:00
2:35 PM,96.1,69.6,42,29.85,10.0,WSW,5.8,-,N/A,,Clear,240,2013-08-30 19:35:00
2:55 PM,96.1,67.5,39,29.84,10.0,West,6.9,-,N/A,,Clear,280,2013-08-30 19:55:00
3:15 PM,97.3,68.4,39,29.83,10.0,WSW,9.2,-,N/A,,Clear,250,2013-08-30 20:15:00
3:35 PM,97.0,68.7,40,29.83,10.0,West,5.8,-,N/A,,Clear,260,2013-08-30 20:35:00
4:15 PM,96.3,68.2,40,29.82,10.0,West,9.2,-,N/A,,Clear,270,2013-08-30 21:15:00
4:35 PM,96.6,68.7,40,29.82,10.0,WSW,9.2,-,N/A,,Clear,240,2013-08-30 21:35:00
4:55 PM,96.3,70.0,42,29.81,10.0,WSW,8.1,-,N/A,,Clear,250,2013-08-30 21:55:00
5:15 PM,95.5,70.9,45,29.80,10.0,WSW,9.2,-,N/A,,Clear,240,2013-08-30 22:15:00
5:35 PM,95.2,71.8,47,29.79,10.0,WSW,10.4,-,N/A,,Clear,240,2013-08-30 22:35:00
5:55 PM,94.6,71.8,47,29.79,10.0,SW,8.1,-,N/A,,Clear,230,2013-08-30 22:55:00
6:15 PM,94.1,71.8,48,29.79,10.0,SW,4.6,-,N/A,,Clear,230,2013-08-30 23:15:00
6:55 PM,91.6,72.1,53,29.81,10.0,SW,3.5,-,N/A,,Clear,220,2013-08-30 23:55:00
7:15 PM,89.8,73.2,58,29.81,10.0,South,3.5,-,N/A,,Clear,190,2013-08-31 00:15:00
7:35 PM,87.6,73.0,62,29.81,10.0,Calm,Calm,-,N/A,,Clear,0,2013-08-31 00:35:00
7:55 PM,85.3,73.0,67,29.81,10.0,South,3.5,-,N/A,,Clear,170,2013-08-31 00:55:00
8:15 PM,86.0,72.7,64,29.81,10.0,SE,3.5,-,N/A,,Clear,140,2013-08-31 01:15:00
8:35 PM,86.9,72.1,61,29.82,10.0,SE,4.6,-,N/A,,Clear,130,2013-08-31 01:35:00
8:55 PM,79.2,65.8,64,29.85,10.0,East,18.4,26.5,N/A,,Mostly Cloudy,80,2013-08-31 01:55:00
9:15 PM,77.9,64.8,64,29.86,10.0,East,15.0,24.2,N/A,,Scattered Clouds,90,2013-08-31 02:15:00
9:35 PM,76.6,65.3,68,29.88,10.0,East,12.7,-,N/A,,Scattered Clouds,90,2013-08-31 02:35:00
9:55 PM,76.6,65.3,68,29.86,10.0,East,16.1,21.9,N/A,,Scattered Clouds,100,2013-08-31 02:55:00
10:15 PM,76.1,65.3,69,29.88,10.0,East,12.7,20.7,N/A,,Clear,100,2013-08-31 03:15:00
10:35 PM,75.2,65.8,73,29.87,10.0,East,10.4,16.1,N/A,,Clear,100,2013-08-31 03:35:00
10:55 PM,74.7,66.4,75,29.86,10.0,East,9.2,17.3,N/A,,Clear,100,2013-08-31 03:55:00
11:35 PM,73.4,65.8,77,29.83,10.0,SSE,6.9,-,N/A,,Clear,160,2013-08-31 04:35:00
11:55 PM,72.7,65.3,78,29.80,10.0,South,6.9,-,N/A,,Clear,190,2013-08-31 04:55:00